* Astronomy

Members Login
Username 
 
Password 
    Remember Me  
Post Info TOPIC: Asteroid 2012 BK14


L

Posts: 131433
Date:
Asteroid 2012 BK14
Permalink  
 


Orbital elements:
2012 BK14                                                Earth MOID = 0.0020 AU
Epoch 2012 Mar. 14.0 TT = JDT 2456000.5                 MPC
M 137.50403              (2000.0)            P               Q
n   1.00712746     Peri.  254.93596     +0.97126814     -0.23681545
a   0.9857038      Node   118.75784     +0.22738116     +0.89414313
e   0.1992277      Incl.    1.54216     +0.07025671     +0.38003486
P   0.98           H   27.4           G   0.15           U   9

MPEC 2012 - B46



__________________
Page 1 of 1  sorted by
 
Quick Reply

Please log in to post quick replies.



Create your own FREE Forum
Report Abuse
Powered by ActiveBoard